Temperature
13 13 12 12 12 12 12 11 11 11 11 12 12 12 12 12 13 13 14 14 14 14 14 14 13 13 13 14 14 14 14 14 14 14 13 13 13 14 14 14 14 14 15
13 12 12 12 12 12 12 11 11 11 11 11 11 11 11 11 12 12 13 13 14 14 14 14 13 13 13 14 14 14 14 14 14 13 13 13 13 13 13 12 13 13 14
12 12 12 12 11 11 11 11 11 11 11 10 10 11 11 11 11 11 12 12 13 13 14 13 13 13 13 14 14 14 14 14 14 13 13 13 13 13 12 12 12 12 13
12 12 12 12 11 11 11 11 10 10 10 10 10 10 10 10 10 10 11 11 12 12 13 13 13 13 13 14 14 14 14 14 14 13 13 13 12 12 12 12 11 11 11
12 12 11 11 11 11 10 10 10 10 10 10 10 10 10 10 10 10 10 10 11 12 12 13 13 13 13 13 14 14 14 14 13 13 12 12 12 12 12 11 11 11 11
11 11 11 11 11 10 10 10 10 9 9 9 9 9 10 10 10 10 10 10 10 11 12 12 13 13 13 13 13 14 14 14 13 13 12 12 12 12 11 11 11 11 10
11 11 11 11 10 10 10 10 9 9 9 9 9 9 9 9 10 10 10 10 10 10 11 12 12 13 13 13 13 13 14 13 13 13 13 12 12 12 11 11 11 11 10
10 10 10 10 10 9 9 9 9 9 8 8 8 8 9 9 9 9 9 9 9 10 10 11 11 12 12 13 13 13 13 13 13 12 12 12 12 11 11 11 11 10 10
8 8 8 8 8 8 8 8 8 8 8 8 8 8 8 9 9 9 9 9 9 9 10 10 11 11 12 12 13 13 13 12 12 12 12 12 11 11 11 10 10 10 9
5 5 5 6 6 7 7 7 7 7 7 7 7 7 7 8 9 9 9 9 9 9 9 10 10 11 11 12 12 12 12 12 11 11 11 11 11 11 11 11 11 11 10
3 4 4 4 4 5 5 5 6 6 6 6 6 7 7 8 8 9 9 9 9 9 9 9 10 10 11 11 12 12 13 12 11 11 11 11 10 10 11 11 11 12 11
3 3 3 3 3 3 4 4 4 5 5 5 6 6 7 7 8 8 9 9 9 9 9 9 9 10 10 11 11 12 12 12 11 11 11 11 11 11 11 11 11 11 12
3 3 3 3 3 3 3 3 3 4 4 5 5 6 7 7 8 8 9 9 9 9 8 8 8 9 9 10 10 11 11 11 11 11 11 11 11 11 11 11 11 11 11
3 3 3 3 3 3 3 3 3 4 4 5 5 6 6 7 8 8 9 9 8 8 8 8 8 8 8 9 10 10 11 11 11 11 11 11 11 11 11 11 11 11 11
4 3 3 3 3 3 4 4 4 4 4 5 5 6 6 7 8 8 8 9 9 8 8 8 7 8 8 8 9 10 10 11 11 11 11 11 11 11 11 11 11 12 11
4 4 3 3 3 3 4 4 4 4 4 5 5 6 6 7 7 8 8 8 8 8 8 7 7 7 8 8 9 9 10 10 10 11 11 11 11 11 11 10 11 11 11
4 4 4 3 4 4 4 4 4 4 5 5 5 6 6 6 7 8 8 8 8 7 7 7 7 8 8 8 9 9 10 10 10 11 11 11 11 11 10 10 10 10 11
4 4 4 3 4 4 4 4 4 4 5 5 5 5 6 6 7 7 7 7 7 7 7 7 7 7 8 8 9 9 10 10 11 11 11 11 11 10 10 10 10 10 10
5 4 4 4 4 4 4 4 4 4 5 5 5 5 6 6 6 7 7 7 7 7 7 7 7 7 8 9 9 9 10 10 11 11 11 11 10 10 10 10 10 10 10
6 5 5 4 4 4 4 5 5 5 5 5 6 6 6 6 6 7 7 7 7 7 7 7 7 7 8 9 9 10 10 11 11 11 11 11 10 10 10 10 10 10 10
6 6 6 5 5 5 5 5 5 5 5 5 6 6 6 6 7 7 7 7 6 6 7 7 7 8 8 9 9 10 10 11 11 11 11 11 11 10 10 10 11 10 10
7 7 7 6 6 6 6 6 6 6 6 6 6 6 6 6 6 6 6 6 7 7 7 8 8 9 9 10 10 10 10 11 11 11 11 11 11 11 10 11 11 11 10
7 7 7 7 7 7 7 7 7 7 7 6 6 6 6 6 6 6 6 7 7 7 8 8 9 10 10 10 11 11 11 11 11 11 11 11 11 11 11 11 11 11 11
7 7 7 7 7 7 7 7 7 7 7 7 6 6 6 6 6 6 7 7 8 8 9 9 10 11 11 11 11 11 11 11 11 11 11 11 11 11 11 11 11 11 11
8 8 7 7 7 7 7 7 7 7 7 7 6 6 6 7 7 7 8 8 9 9 10 11 11 11 11 11 11 11 11 11 11 11 11 11 11 11 11 11 11 11 11
8 8 8 7 7 7 7 7 7 7 7 7 7 7 7 7 8 8 8 9 9 10 11 11 11 11 11 11 11 11 11 11 11 11 11 11 11 11 11 11 11 11 11
Wind_Speed
7 7 7 7 7 6 6 7 6 6 6 6 6 7 7 7 7 6 7 8 9 8 8 8 8 7 6 5 5 5 5 6 6 4 2 3 5 9 8 9 10 10 12
8 8 9 9 8 8 8 9 8 8 7 7 6 7 7 7 6 6 7 7 8 8 9 9 9 7 7 6 5 5 5 6 5 5 3 4 5 10 11 9 6 9 11
10 9 10 10 10 10 10 9 8 8 9 8 7 7 8 7 7 7 6 6 6 7 8 9 9 8 8 6 6 6 5 5 5 5 4 3 5 9 12 10 10 9 10
11 11 11 12 12 11 10 9 9 9 9 9 9 8 8 8 8 8 6 5 5 6 7 9 10 10 9 8 7 7 5 5 5 6 6 7 7 9 11 11 9 8 8
11 12 13 12 11 10 10 9 9 9 10 10 10 9 9 8 8 8 7 6 5 6 7 8 9 11 12 9 7 6 6 5 5 7 8 7 9 11 10 8 11 10 8
12 13 12 11 10 10 10 9 8 8 8 8 9 10 10 10 11 12 9 6 6 6 7 7 8 10 11 11 10 9 9 8 8 7 6 10 10 11 9 11 12 12 6
12 13 12 11 10 10 10 9 8 7 7 7 8 9 10 12 16 15 14 8 7 7 6 6 7 8 10 7 7 6 4 7 9 8 11 11 12 13 13 12 10 7 7
12 12 11 10 11 10 9 9 8 6 6 7 8 9 9 12 16 16 15 9 7 7 7 7 8 8 9 9 7 5 4 5 7 7 9 10 12 12 11 11 12 10 9
13 11 10 9 9 9 9 9 7 6 7 7 8 9 9 10 14 16 13 6 6 7 6 6 8 10 14 14 10 8 7 6 10 14 14 15 17 16 14 11 11 12 11
14 13 11 9 8 8 8 8 7 6 8 8 9 9 9 10 13 15 13 6 6 5 4 3 7 10 16 16 11 10 11 8 10 12 13 14 13 13 12 10 11 12 10
14 13 11 10 10 9 8 7 7 7 7 8 9 9 9 10 12 15 14 7 6 5 3 1 0 5 12 15 13 9 12 12 10 10 9 8 7 6 7 7 8 11 10
14 14 13 11 12 12 8 7 7 7 7 8 8 9 8 8 10 12 16 13 9 6 5 3 3 6 4 7 9 12 16 14 10 9 9 7 6 5 5 7 7 7 7
14 14 13 13 11 10 9 9 8 7 7 7 7 8 7 6 8 14 15 15 13 6 5 7 7 8 5 1 5 15 15 11 10 10 9 6 5 6 6 7 8 8 7
14 13 11 11 10 10 8 8 7 7 8 8 7 7 6 5 5 5 6 7 8 6 6 8 9 8 4 2 3 10 8 9 11 9 8 6 5 5 7 8 8 8 7
13 12 10 9 9 9 8 7 7 7 8 8 7 6 6 6 8 12 10 8 8 7 7 4 3 3 2 1 3 5 5 8 9 7 9 8 7 6 6 5 5 5 6
12 10 8 7 7 6 5 5 7 9 11 13 10 7 6 7 8 13 15 14 14 15 8 5 6 6 5 4 5 5 5 7 8 10 10 9 8 8 6 4 4 7 8
12 10 6 6 5 4 3 3 3 3 4 7 9 9 6 4 5 10 12 12 14 14 6 6 6 7 7 6 5 5 5 6 8 11 11 10 9 8 7 6 5 6 6
10 9 7 5 4 3 3 2 1 1 1 0 2 5 4 2 4 9 13 11 7 6 5 6 7 7 7 6 6 5 6 8 9 10 10 10 9 8 8 7 6 6 6
8 5 5 4 4 3 2 1 1 1 1 2 2 1 2 5 7 10 12 5 8 7 5 5 5 7 7 6 6 7 8 9 10 10 10 10 9 8 8 8 7 9 6
7 8 5 3 4 3 2 1 1 0 1 3 4 4 5 4 4 6 5 4 6 6 5 5 4 6 6 6 7 7 8 9 10 8 8 8 8 9 10 10 9 8 5
7 6 6 3 3 3 2 1 0 1 2 3 3 5 8 5 6 7 6 5 5 5 5 4 3 5 6 6 7 9 10 9 9 8 8 8 8 8 8 9 10 9 7
6 5 4 3 3 2 3 2 1 2 3 4 3 5 8 4 5 5 5 5 4 4 4 3 4 5 7 8 9 9 9 9 8 8 8 8 8 8 8 8 8 8 8
6 6 5 4 3 3 3 2 0 1 2 3 4 5 5 4 5 6 5 4 4 3 3 3 4 5 6 8 9 10 10 9 9 10 9 8 8 7 7 7 9 9 8
6 5 5 4 3 2 2 2 3 3 4 3 3 3 4 5 6 6 5 4 3 3 3 3 3 6 10 9 8 8 8 8 9 9 12 10 9 8 7 8 9 10 10
5 4 3 3 2 2 2 3 4 4 3 3 3 3 4 5 5 5 4 3 3 3 2 2 3 7 11 13 11 9 12 14 12 10 8 9 10 10 9 9 8 7 6
6 4 1 1 1 0 1 2 2 3 3 3 3 3 4 3 3 3 3 3 2 0 1 1 5 8 11 11 12 13 14 14 14 14 8 8 9 8 9 7 9 8 8
Wind_Direction
235 234 238 243 242 244 253 265 272 279 289 295 300 305 305 295 277 253 239 227 221 223 219 220 230 231 234 237 230 221 219 218 238 234 188 142 126 124 113 106 109 107 108
245 242 245 249 246 244 248 253 254 260 267 269 276 284 291 296 300 288 268 257 238 229 223 218 227 229 231 234 229 225 220 213 215 213 181 153 135 137 125 116 107 105 105
250 247 249 252 249 246 248 251 250 250 256 258 256 261 268 274 280 284 282 275 263 247 232 221 221 218 229 231 228 228 226 220 207 193 170 145 136 136 125 115 108 105 102
250 246 245 246 245 244 245 247 249 247 249 254 253 250 252 257 263 265 265 273 278 274 256 235 222 213 218 220 222 223 221 219 199 181 164 155 146 138 131 129 122 115 109
247 243 240 239 237 235 236 240 245 247 249 248 252 253 251 250 253 245 237 251 265 279 276 255 234 217 210 206 207 210 208 203 184 174 165 154 151 149 143 139 133 120 101
246 243 237 230 226 223 222 225 230 240 248 250 250 252 253 255 252 247 235 240 251 262 276 268 241 209 199 199 205 206 203 191 179 169 163 160 157 150 140 142 138 133 121
250 245 236 227 222 219 214 209 215 230 241 248 250 251 251 250 249 249 243 234 240 250 262 256 230 204 181 176 176 162 168 175 172 162 160 156 154 152 144 141 139 127 126
268 258 248 236 230 220 210 209 217 223 234 243 249 250 250 254 249 242 239 232 234 243 249 244 226 197 185 173 158 137 116 108 129 136 142 140 143 141 139 139 134 116 113
293 284 274 259 242 225 215 215 217 221 234 240 245 247 249 255 250 240 228 214 228 242 248 244 226 200 188 171 154 142 123 105 96 107 116 121 126 131 135 133 135 139 143
302 300 296 286 264 241 227 221 219 221 232 241 248 245 244 247 249 238 218 200 218 234 243 246 227 202 182 170 159 153 145 137 126 117 115 120 130 141 148 150 152 152 146
295 289 288 289 279 263 245 233 229 230 234 240 247 248 244 240 243 232 211 192 200 206 202 177 90 181 180 176 166 166 157 143 131 127 127 127 132 151 170 171 165 160 156
297 292 288 283 279 278 260 245 232 227 232 238 243 249 247 239 229 225 210 201 189 177 171 141 84 89 120 179 174 157 145 135 131 130 132 138 143 150 154 159 160 156 158
299 294 290 286 280 274 265 255 243 231 230 234 234 237 240 234 225 220 210 203 193 173 160 141 105 82 67 117 181 156 150 142 141 142 143 143 139 136 122 111 107 108 89
296 292 287 283 279 273 265 255 242 228 225 226 225 227 230 229 214 197 192 189 182 164 147 138 117 104 92 359 169 166 160 156 151 147 142 132 117 115 123 125 124 117 102
298 291 286 279 277 277 267 255 241 229 218 215 217 210 208 221 219 191 177 178 175 168 148 139 134 122 132 171 172 176 155 146 141 137 141 136 129 122 120 117 117 113 119
308 300 292 284 280 276 274 277 255 241 232 225 222 212 211 219 211 184 180 175 165 156 146 158 162 160 171 186 185 174 156 152 151 149 151 149 147 142 134 119 116 126 130
319 316 307 299 291 287 275 272 285 290 250 229 222 213 201 175 164 167 170 165 160 156 155 168 171 173 178 183 181 173 164 159 155 156 158 157 152 145 136 131 127 127 130
328 332 334 320 313 309 302 285 258 228 183 250 235 232 236 197 156 146 143 134 151 170 175 171 175 176 178 178 177 173 158 155 158 157 157 156 154 150 145 144 143 142 140
332 329 330 331 333 328 325 321 301 243 183 158 133 102 120 117 122 145 148 149 168 179 177 172 177 178 176 173 173 167 158 159 160 156 158 159 158 152 155 162 164 160 144
332 345 353 344 342 346 347 343 332 250 162 159 162 155 147 137 142 161 177 167 165 172 175 174 175 182 175 170 167 159 154 155 156 153 158 162 162 159 161 167 173 173 169
330 330 341 342 332 328 326 322 311 154 140 140 159 169 167 163 164 171 177 178 168 167 173 182 184 191 184 171 164 158 154 156 157 154 157 160 159 153 153 160 168 167 161
332 329 317 305 299 295 296 293 260 151 146 142 145 162 175 162 159 167 174 175 166 160 168 187 204 201 190 176 164 158 156 156 157 156 157 158 155 149 146 149 154 157 158
330 334 335 325 311 306 303 303 316 123 126 134 143 146 162 164 163 167 168 160 157 175 206 214 212 191 174 167 162 159 159 162 164 160 156 154 151 152 152 153 155 156 162
308 318 328 335 347 3 13 30 55 81 102 111 121 131 140 141 142 149 152 156 172 200 220 228 198 169 157 155 153 153 153 155 154 157 152 152 155 158 159 157 157 164 171
296 290 298 322 346 19 43 56 69 77 83 91 98 101 106 111 118 130 143 161 186 212 241 235 171 160 155 151 149 147 149 150 154 154 143 147 157 163 164 165 164 163 169
334 323 290 258 294 54 92 88 85 91 92 93 93 94 102 107 109 122 140 154 167 218 295 181 157 157 155 152 148 146 150 154 158 158 150 146 151 161 167 172 175 177 179
Height
1478 1476 1474 1472 1470 1468 1466 1464 1462 1460 1458 1457 1455 1454 1454 1454 1454 1455 1456 1457 1458 1458 1459 1459 1459 1459 1459 1459 1458 1457 1456 1455 1453 1453 1454 1456 1457 1459 1461 1463 1466 1468 1470
1472 1470 1468 1466 1464 1462 1460 1459 1457 1455 1454 1452 1450 1449 1448 1447 1447 1447 1448 1449 1450 1452 1452 1453 1454 1454 1454 1454 1453 1452 1451 1449 1448 1448 1450 1452 1454 1457 1459 1462 1464 1467 1469
1464 1461 1459 1458 1456 1454 1453 1452 1451 1450 1448 1447 1446 1444 1442 1441 1441 1441 1441 1442 1443 1444 1445 1446 1447 1448 1448 1448 1448 1446 1446 1444 1443 1444 1446 1449 1452 1454 1457 1461 1464 1466 1469
1455 1453 1450 1449 1447 1446 1445 1444 1443 1442 1441 1440 1440 1439 1437 1436 1435 1435 1435 1435 1436 1436 1438 1439 1441 1442 1442 1442 1442 1441 1440 1439 1438 1439 1442 1446 1449 1452 1455 1459 1463 1466 1469
1446 1443 1441 1439 1438 1437 1436 1435 1434 1434 1433 1433 1432 1432 1432 1431 1430 1429 1429 1429 1429 1429 1430 1432 1433 1435 1436 1437 1436 1435 1434 1433 1432 1434 1438 1441 1445 1449 1452 1457 1461 1465 1470
1435 1432 1430 1429 1428 1427 1426 1426 1426 1425 1425 1424 1424 1424 1424 1424 1424 1424 1424 1423 1423 1423 1423 1424 1426 1429 1430 1431 1431 1430 1429 1428 1428 1430 1433 1437 1441 1445 1450 1454 1459 1463 1468
1424 1421 1419 1418 1417 1416 1416 1416 1417 1417 1416 1416 1416 1416 1416 1416 1417 1418 1418 1417 1417 1416 1416 1417 1419 1422 1424 1425 1426 1425 1424 1423 1424 1426 1429 1433 1438 1442 1447 1453 1458 1462 1466
1412 1409 1408 1406 1405 1405 1405 1406 1406 1407 1407 1407 1407 1407 1407 1408 1409 1410 1411 1411 1411 1410 1410 1410 1412 1415 1418 1420 1421 1422 1421 1420 1421 1424 1428 1432 1437 1442 1447 1452 1458 1464 1470
1401 1398 1396 1395 1394 1394 1394 1395 1396 1397 1397 1398 1398 1398 1399 1400 1402 1403 1404 1405 1404 1404 1403 1404 1406 1409 1412 1416 1418 1419 1418 1419 1421 1424 1428 1433 1438 1443 1449 1454 1459 1465 1470
1391 1388 1385 1384 1383 1382 1383 1384 1385 1386 1387 1388 1388 1389 1390 1391 1394 1395 1397 1398 1399 1398 1398 1398 1400 1403 1408 1411 1414 1416 1417 1419 1421 1425 1430 1436 1441 1446 1452 1456 1460 1464 1469
1381 1377 1374 1373 1372 1372 1372 1373 1374 1376 1377 1378 1379 1380 1381 1383 1386 1388 1391 1392 1393 1394 1393 1394 1395 1398 1403 1408 1412 1415 1417 1419 1423 1427 1432 1437 1443 1448 1453 1458 1462 1466 1469
1372 1368 1365 1363 1362 1361 1361 1362 1364 1365 1367 1369 1370 1372 1373 1375 1378 1381 1384 1387 1388 1389 1390 1390 1391 1393 1398 1404 1409 1414 1417 1420 1424 1428 1433 1438 1444 1449 1453 1458 1462 1467 1471
1365 1361 1357 1355 1353 1352 1351 1351 1353 1355 1358 1360 1362 1364 1366 1368 1371 1375 1378 1381 1384 1385 1386 1388 1389 1391 1395 1400 1407 1412 1416 1420 1424 1428 1433 1439 1444 1449 1454 1458 1463 1467 1471
1359 1355 1351 1348 1346 1344 1344 1343 1344 1346 1349 1352 1354 1357 1359 1362 1365 1368 1372 1376 1379 1381 1383 1385 1387 1389 1392 1397 1403 1410 1415 1420 1424 1429 1434 1440 1445 1450 1454 1458 1461 1465 1469
1354 1349 1346 1343 1341 1339 1338 1338 1339 1340 1343 1346 1349 1351 1354 1357 1360 1364 1367 1371 1374 1377 1380 1382 1384 1387 1390 1395 1401 1408 1414 1419 1424 1429 1434 1439 1444 1449 1453 1457 1460 1463 1466
1350 1345 1342 1339 1337 1336 1335 1335 1336 1337 1339 1342 1344 1347 1350 1353 1357 1360 1364 1368 1371 1373 1376 1379 1382 1385 1389 1394 1399 1406 1412 1418 1424 1429 1434 1438 1443 1448 1452 1456 1459 1463 1466
1349 1344 1340 1337 1335 1334 1334 1334 1334 1336 1337 1339 1342 1345 1348 1352 1355 1358 1361 1365 1368 1370 1373 1376 1379 1382 1386 1391 1397 1404 1411 1417 1423 1428 1433 1438 1442 1446 1450 1454 1458 1462 1465
1350 1344 1340 1337 1335 1334 1333 1333 1334 1335 1337 1338 1341 1344 1347 1350 1353 1356 1359 1362 1365 1367 1370 1373 1376 1380 1384 1390 1396 1404 1410 1417 1422 1427 1432 1437 1441 1445 1448 1453 1457 1460 1463
1352 1346 1342 1339 1337 1335 1334 1334 1335 1336 1337 1339 1340 1343 1346 1349 1352 1355 1358 1360 1363 1365 1368 1371 1374 1378 1383 1389 1396 1403 1410 1415 1420 1425 1431 1436 1440 1444 1448 1453 1457 1460 1463
1354 1349 1345 1342 1339 1338 1337 1336 1336 1337 1338 1339 1341 1343 1345 1348 1351 1354 1356 1359 1362 1364 1367 1371 1374 1378 1384 1390 1397 1403 1410 1415 1420 1425 1430 1435 1440 1444 1448 1452 1456 1459 1463
1357 1353 1348 1345 1342 1340 1339 1338 1338 1338 1339 1340 1341 1343 1345 1348 1350 1353 1355 1358 1361 1364 1367 1371 1375 1379 1385 1391 1397 1403 1409 1414 1420 1425 1430 1434 1439 1443 1447 1451 1455 1459 1462
1360 1356 1352 1348 1345 1343 1341 1340 1340 1340 1340 1341 1342 1343 1345 1347 1349 1352 1355 1358 1361 1365 1369 1373 1377 1382 1386 1392 1398 1403 1409 1414 1419 1424 1429 1433 1437 1442 1446 1450 1453 1457 1461
1359 1356 1354 1351 1349 1346 1345 1343 1343 1342 1342 1342 1343 1343 1345 1347 1349 1353 1356 1360 1364 1368 1372 1375 1379 1383 1388 1393 1398 1404 1409 1414 1419 1424 1428 1432 1437 1441 1445 1449 1452 1455 1459
1358 1356 1354 1353 1351 1350 1348 1347 1346 1345 1345 1345 1344 1345 1346 1349 1352 1355 1359 1363 1367 1371 1374 1377 1381 1385 1389 1394 1399 1404 1410 1415 1419 1424 1428 1432 1436 1440 1444 1448 1451 1454 1457
1357 1354 1353 1352 1352 1351 1351 1350 1350 1349 1349 1348 1348 1349 1351 1353 1357 1360 1364 1368 1371 1375 1378 1381 1384 1388 1392 1396 1401 1406 1411 1415 1420 1424 1428 1432 1436 1440 1443 1447 1449 1452 1455
1358 1355 1353 1351 1351 1351 1352 1352 1352 1352 1353 1353 1354 1355 1357 1360 1363 1366 1370 1373 1376 1379 1381 1384 1388 1391 1395 1399 1403 1408 1412 1417 1421 1425 1428 1432 1435 1439 1442 1445 1448 1450 1453